Username
Password
 
Info Terbaru :
  

Jackpot hanya dapat di beli di awal sebelum periode tersebut berjalan dan jika berhasil maka anda dapat melihat di sisi kiri bawah atau kiri atas akan terdapat notifikasi bahwa jackpot anda berhasil di beli.

Jika anda membeli jackpot di tengah permainan maka pembelian jackpot akan berlaku untuk periode selanjutnya.

Jackpot Winner Domino

Ikutilah global jackpot yang tersedia di system kami, dengan system jackpot terbaru dan pertama di indonesia, anda dapat membeli jackpot dengan harga 100 rupiah saja dan menangkan hadiahnya hingga puluhan juta rupiah.

Jackpot bukanlah suatu keharusan untuk dibeli, namun kami memberikan suatu fitur tambahan untuk member tercinta dari www.cooldp.com.

Terdapat tiga pilihan harga jackpot yang bisa anda beli yaitu :100,500 dan 1000 rupiah.

Hadiah dari Multi jackpot system www.cooldp.com

  1. Murni Kecil x 50 harga jackpot yang anda beli.
      (contoH:anda membeli 1000 maka:1000 X 50 = 50.000)
  2. Murni Besar x 50 harga jackpot yang anda beli
      (contoH:anda membeli 1000 maka:1000 X 50 = 50.000)
  3. BALAK x 100 harga jackpot yang anda beli
      (contoH:anda membeli 1000 maka:1000 X 100 = 100.000)
  4. ENAM DEWA x 6666 harga jackpot yang anda beli
      (contoH:anda membeli 1000 maka:1000 X 6666 = 6.666.000)

Demikian adalah penjelasan dari Multi Jackpot www.cooldp.com terima kasih dan selamat bermain salam hoki dari kami


Note: Untuk mendapatkan jackpot di satu periode, pemain harus menyelesaikan permainan di periode tersebut, minimal 2 pemain. Jika semua pemain 'fold' jackpot tidak akan diturunkan.


Jackpot Winner

TOP ENAM DEWA
No. Tanggal Nama Price Win
1 17/01 14:30 AYAR06 murni enam 3,333,000
2 17/01 14:29 COINS666 murni enam 6,666,000
3 17/01 13:37 ENAKLHOO murni enam 6,666,000
4 17/01 13:28 QUEENSSA murni enam 6,666,000
5 17/01 12:56 FLO6666 murni enam 3,333,000
TOP BALAK
No. Tanggal Nama Price Win
1 17/01 14:39 OMPRI6266 balak 50,000
2 17/01 14:38 F474R_ balak 50,000
3 17/01 14:37 CIKAL900 balak 10,000
4 17/01 14:31 T4D0012914 balak 100,000
5 17/01 14:31 BINDO82 balak 50,000
LATEST JACKPOT
No. Tanggal Nama Price Win
1 17/01 14:39 OMPRI6266 balak 50,000
2 17/01 14:38 J1010 murni kecil 50,000
3 17/01 14:38 F474R_ balak 50,000
4 17/01 14:38 BURUNG321 murni besar 50,000
5 17/01 14:37 ZURA1308 murni kecil 25,000
6 17/01 14:37 CIKAL900 balak 10,000
7 17/01 14:37 WANGER89 murni besar 50,000
8 17/01 14:37 ZABUZABUU murni besar 25,000
9 17/01 14:36 GJKOJAY murni besar 50,000
10 17/01 14:36 MIKA86 murni besar 5,000
11 17/01 14:36 AINI2645 murni besar 5,000
12 17/01 14:35 AP1981 murni kecil 25,000
13 17/01 14:35 C3M4R412 lucky99 2,500
14 17/01 14:35 SANYO888 murni besar 25,000
15 17/01 14:33 APRI22SAH murni kecil 50,000
16 17/01 14:33 GITIK_99 lucky99 10,000
17 17/01 14:33 NAMATEA murni kecil 5,000
18 17/01 14:33 C3M4R412 murni kecil 5,000
19 17/01 14:32 ELPIJI420 murni besar 50,000
20 17/01 14:32 WIDEX123 murni kecil 50,000
21 17/01 14:32 CKB999 murni besar 5,000
22 17/01 14:32 JOEDII lucky99 2,500
23 17/01 14:32 DEWI92 murni besar 25,000
24 17/01 14:32 FUCK43 murni besar 5,000
25 17/01 14:31 T4D0012914 balak 100,000
26 17/01 14:31 PEDARE murni besar 50,000
27 17/01 14:31 BINDO82 balak 50,000
28 17/01 14:31 CIKAL900 murni kecil 5,000
29 17/01 14:31 WITAN333 murni besar 5,000
30 17/01 14:30 IBRA69 murni kecil 50,000
31 17/01 14:30 MIZORE balak 100,000
32 17/01 14:30 AYAR06 murni enam 3,333,000
33 17/01 14:30 PULSA10 murni kecil 25,000
34 17/01 14:30 FERJAY303 murni kecil 25,000
35 17/01 14:29 COINS666 murni enam 6,666,000
36 17/01 14:29 PABLO_88 murni besar 5,000
37 17/01 14:29 NGOKOS murni besar 25,000
38 17/01 14:29 VIRA84 balak 50,000
39 17/01 14:28 T4DSTONER99 murni kecil 50,000
40 17/01 14:28 TOPLES20 murni kecil 25,000
41 17/01 14:28 TEMPALO murni besar 25,000
42 17/01 14:28 AAAAAPN166 murni besar 5,000
43 17/01 14:27 IPANK00000 murni besar 50,000
44 17/01 14:27 KHODEL88 murni kecil 50,000
45 17/01 14:26 RHUDIYA10 balak 100,000
46 17/01 14:25 LODER01 murni besar 50,000
47 17/01 14:25 CANAI balak 10,000
48 17/01 14:25 AP1981 murni besar 25,000
49 17/01 14:25 MAIDAN36 murni besar 50,000
50 17/01 14:25 T4DSTONER99 balak 100,000


Situs Poker Online
Dewapoker.com Hadir untuk semua pecinta permainan kartu poker online yang khususnya berada di asia. Dengan system teknology baru dan server kecepatan tinggi akan membuat permainan poker anda lebih seru dan menarik bersama teman2x anda maupun saingan anda. Cukup lakukan login dan langsung bermain tanpa download. Dewapoker.com dengan encrypsi server yang tinggi akan menjamin keamanan data para member.
Terms & Conditions Link Alternatif Video Dewapoker
© Copyright 2019 Dewa Poker. All right reserved.
Dewa.FM